Regional Weather Roundup
Issued by NWS Wakefield, VA

Home | Current Version | Previous Version | Text Only | Print | Product List | Glossary On
Versions: 1 2 3 4 5 6 7 8 9 10 11 12 13 14 15 16 17 18 19 20 21 22 23 24 25 26 27 28 29 30 31 32 33 34 35 36 37 38 39 40 41 42 43 44 45 46 47 48 49 50
000
ASUS41 KAKQ 301910
RWRAKQ

REGIONAL WEATHER ROUNDUP
NATIONAL WEATHER SERVICE WAKEFIELD VA
200 PM EST FRI JAN 30 2015

Note: "fair" indicates few or no clouds below 12,000 feet with no
significant weather and/or obstructions to visibility. * = Denotes
station may not report precipitation (e.g., rain,snow,etc.),
thunder or fog.

VAZ042-051-052>054-056-302000-
NORTHERN VIRGINIA

CITY           SKY/WX    TMP DP  RH WIND       PRES   REMARKS
WASH NATIONAL  PTSUNNY   42  14  32 NW26G40   30.05R
DULLES         PTSUNNY   35  16  45 NW25G36   30.05R WCI  23
FORT BELVOIR   SUNNY     39  12  33 NW24G33   30.05F
QUANTICO       PTSUNNY   40  15  36 NW28G40   30.08S
FREDERICKSBRG* CLOUDY    40  18  41 NW14G31   30.06R
STAFFORD*      PTSUNNY   36  13  38 NW24G36   30.10S WCI  24
WARRENTON      PTSUNNY   38  20  48 NW14G30   30.08R
CULPEPER*      PTSUNNY   39  12  33 NW17G24   30.09R
MANASSAS*      MOSUNNY   39  14  35 NW23G31   30.07S
LEESBURG*      CLOUDY    34  19  55 NW21G28   30.07R WCI  22
WINCHESTER     PTSUNNY   32  12  43 NW28G37   30.09R WCI  18
FRONT ROYAL*   MOCLDY    32  14  47 NW16G26   30.09R WCI  21
LURAY*         CLOUDY    34  14  44 NW17G32   30.11R WCI  23
$$

VAZ048-049-060>072-079>083-302000-
CENTRAL AND SOUTH CENTRAL VIRGINIA

CITY           SKY/WX    TMP DP  RH WIND       PRES   REMARKS
RICHMOND       PTSUNNY   44  18  35 NW13G23   30.03S
CHESTERFIELD*  CLOUDY    43  16  33 N18G24    30.05R
PETERSBURG*    CLOUDY    46  20  36 NW9       30.03S
HANOVER        CLOUDY    42  17  36 NW12G21   30.05R
TAPPAHANNOCK*  PTSUNNY   41  12  30 NW14G25   30.03S
QUINTON*       CLOUDY    40  20  44 N10G22    30.03R
CHARLOTTSVILLE PTSUNNY   37  15  40 NW14G26   30.08R
GORDONSVILLE*  CLOUDY    37  13  37 NW13G25   30.08R
ORANGE*        PTSUNNY   39  18  41 W17G29    30.09R
LOUISA*        CLOUDY    43  18  36 NW15G28   30.04R
BUMPASS*       CLOUDY    39  17  40 NW13G20   30.05R
FARMVILLE*     CLOUDY    50  13  23 W7G21     30.03S
CREWE*         CLOUDY    44  14  30 NW14G20   30.03R
FORT PICKETT*  CLOUDY    44  15  32 NW10G18   30.03S
CHASE CITY*    CLOUDY    47  21  36 W13G28    30.06R
CLARKSVILLE*   MOCLDY    45  19  36 NW12G26   30.06S
SOUTH HILL*    PTSUNNY   45  15  30 NW9       30.09F
LAWRENCEVILLE* CLOUDY    45  16  31 NW16G22   30.02F
EMPORIA*       PTSUNNY   45  19  36 W12G20    30.04F
$$

VAZ088>098-302000-
SOUTHEAST VIRGINIA

CITY           SKY/WX    TMP DP  RH WIND       PRES   REMARKS
NORFOLK        CLOUDY    42  25  50 N15G25    29.99S
VIRGINIA BEACH PTSUNNY   45  26  47 N20G31    29.98F
NORFOLK NAVAL  CLOUDY    45  24  43 NW17G31   30.01S
WEST POINT*    CLOUDY    43  21  41 NW9       30.03F
SALUDA*        CLOUDY    39  25  58 NW10G20   30.00F
NEWPORT NEWS   CLOUDY    45  24  43 NW16G25   30.01S
LANGLEY AFB    CLOUDY    41  23  48 N16       30.00S
FORT EUSTIS    MOSUNNY   42  29  59 N14       30.00R
WILLIAMSBURG*    N/A     45  27  49 NW12G22   30.02F
HR EXEC AP*    MOCLDY    43  25  49 W12       30.02F
FRANKLIN*      CLOUDY    42  25  51 W7        30.03S
WAKEFIELD      CLOUDY    44  21  40 N9G20     30.02S
$$

VAZ020-022-025-037-045-302000-
WEST CENTRAL AND SOUTHWEST VIRGINIA

CITY           SKY/WX    TMP DP  RH WIND       PRES   REMARKS
STAUNTON*      MOSUNNY   33   8  35 NW18G30   30.12R WCI  22
WAYNESBORO*    MOCLDY    34   9  35 NW16G28   30.07R WCI  24
HOT SPRINGS VA PTSUNNY   20   9  62 W28G38    29.93F WCI   2
LYNCHBURG      MOSUNNY   39  12  33 W10G21    30.10R
DANVILLE       SUNNY     44  14  29 N22G33    30.12R
SOUTH BOSTON*  MOCLDY    44  15  30 NW23G33   30.09R
MARTINSVILLE   SUNNY     42  14  33 NW25G38   30.14S
ROANOKE        CLOUDY    37  13  37 N21G26    30.15S
BLACKSBURG     CLOUDY    29  16  57 W18G35    30.13S WCI  17
DUBLIN*        PTSUNNY   34  19  53 NW23G37   30.13S WCI  22
MARION*        FLURRIES  30  18  61 W21G38    30.17S WCI  17
HILLSVILLE*    CLOUDY    30  16  54 NW32G44   30.08F WCI  15
RICHLANDS*     LGT SNOW  26  20  77 NW17G24   30.21R WCI  13
WISE*          CLOUDY    30  19  64 NW10G23   30.25S WCI  21
ABINGDON*      CLOUDY    34  21  59 N13G22    30.25R WCI  25
$$

MDZ021>025-VAZ099-100-302000-
SOUTHERN MARYLAND AND THE DELMARVA PENINSULA

CITY           SKY/WX    TMP DP  RH WIND       PRES   REMARKS
PATUXENT RIVER PTSUNNY   42  14  32 NW25G32   30.00F
BAY BRIDGE APT   N/A     37  21  52 NW20G31   29.99S
LEONARDTOWN    MOSUNNY   39  12  33 W14G24    30.02F
DOVER          PTSUNNY   41  21  45 NW25G35   29.92F
GEORGETOWN     CLOUDY    43  20  39 W14G29    29.92F
EASTON         CLOUDY    41  23  48 NW18G31   30.01R
CAMBRIDGE      MOSUNNY   41  23  48 W17G35    29.97S
SALISBURY      CLOUDY    43  17  35 NW20G28   29.93S
OCEAN CITY     CLOUDY    41  20  43 NW14G28   29.92S
WALLOPS ISLAND PTSUNNY   43  23  45 NW21G35   29.94S
ACCOMACK*      CLOUDY    41  27  56 NW18G35   29.98S
$$

NCZ012>017-030>032-302000-
NORTH CENTRAL AND EASTERN NORTH CAROLINA

CITY           SKY/WX    TMP DP  RH WIND       PRES   REMARKS
ROANOKE RAPIDS FAIR      46  18  31 NW16G22   30.04S
RALEIGH        MOSUNNY   47  16  29 NW14G28   30.09S
ELIZABETH CITY CLOUDY    44  27  51 NW16G23   30.00F
AHOSKIE*       CLOUDY    45  20  38 W6        30.03S
EDENTON*       CLOUDY    44  32  62 N12       30.02S
CURRITUCK*     CLOUDY    44  21  40 NW13G23   30.00S
KILL DEVIL HLS CLOUDY    42  26  53 NW9G16    29.97S
MANTEO         CLOUDY    43  28  56 N10G17    30.00S
CAPE HATTERAS  CLOUDY    43  32  65 N9        29.99S
TARBORO*       CLOUDY    50  19  29 W17G25    30.05F
GOLDSBORO      PTSUNNY   48  25  40 NW16G26   30.06S
WASHINGTON     CLOUDY    47  22  38 NW16G24   30.03S
GREENVILLE     MOSUNNY   46  19  34 NW15G24   30.06S
NEW BERN       CLOUDY    49  24  37 NW13G28   30.05R
WILMINGTON     MOSUNNY   52  27  38 NW16G28   30.05F
$$

VAZ048-302000-
ELSEWHERE

CITY           SKY/WX    TMP DP  RH WIND       PRES   REMARKS
HARRISBURG PA  CLOUDY    32  18  56 NW22G29   30.00R WCI  19
BALTIMORE      PTSUNNY   38  19  46 W24G40    30.00S
ANNAPOLIS      PTSUNNY   38  20  48 NW15G29   30.00R
ANDREWS AFB    PTSUNNY   37  14  38 NW23      30.01S
PHILADELPHIA   PTSUNNY   40  17  39 NW23G36   29.91S
HENDERSON NC   MOSUNNY   47  13  26 NW17G23   30.06F
GREENSBORO     MOSUNNY   45  12  26 N16G28    30.10S
ROCKY MOUNT    MOSUNNY   49  18  29 NW20G29   30.06S
$$

VAZ100-302000-
MARINE

STATION/POSITION TIME  TEMP    WIND        PRES    WAVE   SWELL
                       AIR SEA DIR/SP/G            HT/PER HT/PER
                 (UTC) (F)     (DEG/KT/KT) (MB)    (FT/S) (FT/S)
BRANDYWINE LGT   1900   37 37  340/ 19/ 22 1012.9S
CAPE MAY NJ      1900   38 37              1012.2S
LEWES DE         1900   38 37  340/ 19/ 20 1012.9R
15NM E FENWICK I 1900   38 40              1011.9F   5/ 5
OCEAN-CITY-INLET 1900   40 36  340/ 18/ 26 1012.5S
WACHAPREAGUE VA  1900   42 37  290/  6/ 21 1014.8F
THOMAS POINT MD  1900   36 36  300/ 27/ 29 1016.3S
GOOSES REEF MD   1900   38     VRB 21/ 27  1014.7R
COVE POINT MD    1900   38     330/ 19/ 25 1015.4F
SOLOMONS ISLAND  1900      37                N/A
BISHOPS HEAD MD  1900   37 36  300/ 19/ 26   N/A
PINEY POINT MD   1900          340/ 28/ 31   N/A
POTOMAC MD       1900   39     330/ 23/ 27 1015.5S
CAMBRIDGE MD     1900   39 35  290/ 20/ 28 1014.9R
LEWISETTA VA     1900   38 37  340/ 16/ 23 1016.4R
RAPPAHANNOCK LGT 1900          320/ 28/ 31 1015.9F
STINGRAY PT      1900   39     330/ 21/ 29 1016.2F
YORK RVR RNG VA  1900   39     360/ 24/ 27 1015.0F
YORKTOWN VA      1900   40 39  350/ 17/ 23 1015.8R
JAMESTOWN VA     1900   40     360/ 14/ 19   N/A
DOMINION TERM VA 1900   42      60/  3/  8 1015.8S
KIPTOPEKE VA     1900      44  330/ 26/ 31   N/A
CHES BAY BRIDGE  1900   40 40  320/ 22/ 24 1015.3R
CAPE HENRY VA    1900   40     330/ 22/ 26 1014.1R
CHESAPEAKE LGHT  1800   42     340/ 26/ 28 1015.2F
WILLOUBY STN VA  1900   41     330/ 24/ 27 1016.3R
S CRANEY ISL VA  1900          350/ 15/ 23 1015.6R
CAPE HENRY BUOY  1900      42                N/A     4/ 4
1ST LANDING BUOY 1900   41     340/ 19/ 23 1015.0F
CAPE CHARLES BUO 1900      41                N/A     3/ 4   2/11
OFFSHORE WE BUOY 1900      43                N/A     5/ 5   2/10
64NM E OF VA BCH 1900   42 49  330/ 25/ 33 1012.9F   7/ 6   2/10
DUCK PIER NC     1900   42 44  330/ 17/ 19 1014.3F
44100 DUCK FRF   1900      45                N/A     4/ 5
44056 DUCK FRF   1900      43                N/A     3/ 4
OREGON INLET NC  1900   42 42  330/ 12/ 16 1015.3S
HATTERAS NC      1900   43 46  350/ 21/ 24 1015.8R


USA.gov is the U.S. government's official web portal to all federal, state and local government web resources and services.